{"data":{"norad_id":69910,"intl_designator":"2026-156AT","name":"LEMUR-2-DELOITTE-5","alt_names":[],"object_type":"PAYLOAD","status":"ACTIVE","operator":null,"country":"US","launch_date":"2026-07-07","launch_site_code":"AFWTR","launch_vehicle":null,"mission":null,"orbit_class":"UNKNOWN","rcs_meters":null,"size_class":null,"mass_kg":null,"dimensions":null,"purposes":[],"wikipedia_slug":null,"has_3d_model":false,"image_url":null,"decayed_at":null,"tle_current":{"epoch":"2026-09-18T22:57:13.968288Z","epoch_age_seconds":151186,"freshness":"FRESH","line1":"1 69910U 26156AT  26261.95641167  .00002226  00000+0  22896-3 0  9992","line2":"2 69910  97.7460 161.1154 0001359 264.3067  95.7997 14.91311908 10975","mean_motion":14.91311908,"eccentricity":0.0001359,"inclination_deg":97.746,"raan_deg":161.1154,"arg_perigee_deg":264.3067,"mean_anomaly_deg":95.7997,"bstar":0.00022896,"rev_number":1097,"period_min":96.55927725617,"perigee_km":592.8963360607,"apogee_km":594.79132044982,"semimajor_km":6971.9808282553,"source":"CELESTRAK","updated_at":"2026-09-20T09:00:25.174317Z"}}}